User: anonymous
Location: Meriden
(44.0740°N, 93.3870°W)
Time: 12:32:09
(UTC-05:00)
Language:

Hamsat - Orbit

View from above orbital plane
View from above orbital plane
View from above satellite
View from above satellite

Ground track
Ground track

The orbit data is extracted from the following two-line orbital elements,

1 28650U 05017B   14205.46937421  .00000528  00000-0  66591-4 0  7996
2 28650 097.5605 208.5740 0025629 038.7828 321.5222 14.85597277498767
Epoch (UTC): 24 July 2014 11:15:53
Eccentricity: 0.0025629
inclination: 97.5605°
perigee height: 594 km
apogee height: 629 km
right ascension of ascending node: 208.5740°
argument of perigee: 38.7828°
revolutions per day: 14.85597277
mean anomaly at epoch: 321.5222°
orbit number at epoch: 49876

The dashed part of the orbit path shows where the satellite is in the earth's shadow,  

DLR